METAR Formatted Surface Weather Observation
Issued by NWS

Home | Current Version | Previous Version | Text Only | Print | Product List | Glossary On
Versions: 1 2 3 4 5 6 7 8 9 10 11 12 13 14 15 16 17 18 19 20 21 22 23 24 25 26 27 28 29 30 31 32 33 34 35 36 37 38 39 40 41 42 43 44 45 46 47 48 49 50
000
SAUS44 KFWD 311759 COR
MTRNQI
METAR KNQI 311756Z 03010KT 10SM FEW035 FEW100 BKN250 21/19 A3021 RMK
AO2 RAE11 SLP225 CB DSNT SE-S P0000 60054 T02060189 10211 20189
50004 $



USA.gov is the U.S. government's official web portal to all federal, state and local government web resources and services.